Location: Kapuskasing
(49.3803°N, 82.4001°W)
Time: 15:14:42
(UTC-05:00)

RS-44 - Pass Details

Date: 13 December 2025
Orbit: 1174 x 1511 km, 82.5° (Epoch: 21 January)

Event Time Altitude Azimuth Distance (km) Brightness Sun altitude
Exits shadow 03:14:11 18° 2° (N) 3,072 ? -47.7°
Drops below altitude 10° 03:15:56 10° 6° (N) 3,618 ? -47.4°
Sets 03:18:51 0° 10° (N) 4,568 ? -47.0°
